Погода в Бурайде

Саудовская Аравия     26°20′56″N   43°57′36″E
темп.,
°C
ветер,
м/с
пор.,
м/с
влажн.,
%
обл.,
%
осадки,
мм/ч
давл.,
гПа
погр.,
м
23 сентября, чт
чт2300:00+29юв561721 0.0 100567
03:00+27юв581938 0.0 100585
06:00+26юв68205 0.0 100683
09:00+33зюз22130 0.0 1006339
12:00+39с4490 0.0 10052794
15:00+40с5590 0.0 10034282
18:00+36ссв55113 0.0 100434
21:00+31ссв441436 0.0 100633
24 сентября, пт
пт2400:00+30св44150 0.0 100626
03:00+26с22185 0.0 100711
06:00+26ссз44192 0.0 100822
09:00+32ссв22130 0.0 1008338
12:00+38ссв32100 0.0 10071884
15:00+39св1190 0.0 10044030
18:00+35ссв33110 0.0 100511
21:00+33всв44135 0.0 100717
25 сентября, сб
сб2500:00+28с56161 0.0 100871
03:00+27св45195 0.0 100940
06:00+25всв44215 0.0 101134
09:00+32вюв45134 0.0 1011434
12:00+38юв45105 0.0 10092308
15:00+39юв4495 0.0 10074110
18:00+35в44124 0.0 100728
21:00+31в5101598 0.0 1008125
26 сентября, вс
вс2600:00+28в342088 0.0 100923
03:00+26св462327 0.0 101063
06:00+24св4427100 0.0 101229
09:00+30в561988 0.0 1013584
12:00+35вюв331452 0.0 10101775
15:00+37юв111233 0.0 10082505
18:00+33св34155 0.0 100816
21:00+29всв612220 0.0 1009177
27 сентября, пн
пн2700:00+27всв48270 0.0 1009132
03:00+24св44295 0.0 101049
06:00+22всв22295 0.0 101111
09:00+29всв331814 0.0 1011422
12:00+34в22155 0.0 10081316
15:00+36ссв22130 0.0 10052005
18:00+33ссв44160 0.0 100634
21:00+29св59180 0.0 1007112